sat.trackr.live / text

‹ back to catalog

STARLINK-35881

NORAD 66830 · 2025-280K

PAYLOAD ACTIVE UNKNOWN

§ Identity

Operator
Country
US
Launch date
2025-12-02
Launch site
AFWTR
Launch vehicle
Mass (kg)
RCS (m²)

Purposes: comms

External: N2YO · Heavens-Above · Gunter

§ Orbital elements

Epoch: 2026-05-25T03:24:35.953056Z

Period
96.11 min
Inclination
70.0008°
Eccentricity
0.0003926
Mean motion
14.98337301 rev/d
Perigee alt
569.3 km
Apogee alt
574.8 km
Semi-major
6,950.2 km
B*
3.6747e-4
RAAN
141.8609°
Arg perigee
269.0490°
Mean anomaly
91.0219°
Rev number
2,752

§ Raw data

STARLINK-358811 66830U 25280K   26145.14208279  .00004295  00000+0  36747-3 0  99902 66830  70.0008 141.8609 0003926 269.0490  91.0219 14.98337301 27526

JSON: /api/v1/satellites/66830 · /tle

For live sub-satellite position, see the globe view (requires WebGL).

§ Visibility from observer

Set your observer location to see the next 7 days of passes ≥ 10°. The values pass through the URL so the page stays shareable.

No JS? Fill the form by hand. The geolocation button needs JavaScript.